{"data":{"norad_id":43233,"intl_designator":"2018-024C","name":"O3B FM14","alt_names":[],"object_type":"PAYLOAD","status":"ACTIVE","operator":null,"country":"O3B","launch_date":"2018-03-09","launch_site_code":"FRGUI","launch_vehicle":null,"mission":null,"orbit_class":"UNKNOWN","rcs_meters":null,"size_class":null,"mass_kg":null,"dimensions":null,"purposes":["comms"],"wikipedia_slug":null,"has_3d_model":false,"image_url":null,"decayed_at":null,"tle_current":{"epoch":"2026-05-24T23:58:03.015264Z","epoch_age_seconds":78688,"freshness":"FRESH","line1":"1 43233U 18024C   26144.99864601 -.00000024  00000+0  00000+0 0  9995","line2":"2 43233   0.0486   8.5251 0002880  55.6275 295.8764  5.00115729149795","mean_motion":5.00115729,"eccentricity":0.000288,"inclination_deg":0.0486,"raan_deg":8.5251,"arg_perigee_deg":55.6275,"mean_anomaly_deg":295.8764,"bstar":0,"rev_number":14979,"period_min":287.9333555214,"perigee_km":8061.7259304963,"apogee_km":8070.0456876343,"semimajor_km":14444.022809065,"source":"CELESTRAK","updated_at":"2026-05-25T13:38:14.514078Z"}}}